Location: ??????
(38.5153°N, 23.0340°E)
Time: 22:31:03
(UTC+00:00)

Cosmos 2219 - Pass Details

Date: 13 December 2025
Orbit: 831 x 860 km, 71.1° (Epoch: 14 January)

Event Time Altitude Azimuth Distance (km) Brightness Sun altitude
Rises 15:57:59 0° 346° (NNW) 3,435 6.3 -9.7°
Reaches altitude 10° 16:00:46 10° 358° (N) 2,498 5.5 -10.2°
Maximum altitude 16:05:46 30° 58° (ENE) 1,492 4.0 -11.2°
Drops below altitude 10° 16:10:46 10° 119° (ESE) 2,491 5.3 -12.1°
Sets 16:13:31 0° 130° (SE) 3,424 6.1 -12.6°
